Location: Casone le Fosse
(44.6547°N, 12.1103°E)
Time: 12:15:10
(UTC+00:00)

CZ-4C R/B - Pass Details

Date: 29 October 2020
Orbit: 624 x 1378 km, 63.4° (Epoch: 27 November)

Event Time Altitude Azimuth Distance (km) Brightness Sun altitude
Rises 16:52:03 0° 318° (NW) 3,575 5.9 -9.1°
Reaches altitude 10° 16:55:21 10° 337° (NNW) 2,774 5.1 -9.6°
Maximum altitude 16:59:51 19° 20° (NNE) 2,380 4.3 -10.4°
Enters shadow 17:04:27 11° 59° (ENE) 3,047 4.5 -11.2°
